Location: Assche-ter-Heiden
(50.9174°N, 4.1574°E)
Time: 00:20:18
(UTC+00:00)

Lacrosse 5 rocket - Pass Details

Date: 20 January 2020
Orbit: 465 x 632 km, 57.0° (Epoch: 23 February)

Event Time Altitude Azimuth Distance (km) Brightness Sun altitude
Exits shadow 05:00:13 47° 358° (N) 837 2.1 -24.0°
Drops below altitude 10° 05:04:16 10° 58° (ENE) 1,979 4.9 -23.3°
Sets 05:06:36 0° 65° (ENE) 2,864 6.0 -23.0°
